Regional Weather Roundup
Issued by NWS Charleston, SC

Current Version | Previous Version | Text Only | Print | Product List | Glossary On
Versions: 1 2 3 4 5 6 7 8 9 10 11 12 13 14 15 16 17 18 19 20 21 22 23 24 25 26 27 28 29 30 31 32 33 34 35 36 37 38 39 40 41 42 43 44 45 46 47 48 49 50
253 ASUS42 KCHS 030528 RWRCHS REGIONAL WEATHER ROUNDUP NATIONAL WEATHER SERVICE CHARLESTON SC 100 AM EDT TUE MAY 03 2016 NOTE: "FAIR" INDICATES FEW OR NO CLOUDS BELOW 12,000 FEET WITH NO SIGNIFICANT WEATHER AND/OR OBSTRUCTIONS TO VISIBILITY. NOT ALL STATIONS ARE QUALITY CONTROLLED. USE DATA WITH CAUTION... ESPECIALLY DEWPOINT OBSERVATIONS. SCZ027-030-031-034>040-042>050-030600- ...SOUTHEAST SOUTH CAROLINA... CITY SKY/WX TMP DP RH WIND PRES REMARKS N CHARLESTON LGT RAIN 74 71 91 S8 29.94F WATERFRONT PRK N/A 74 73 96 S7 29.94F MOUNT PLEASANT FAIR 75 73 94 S5 29.93F JOHNS ISLAND FAIR 75 72 88 S13 29.94F PINOPOLIS N/A 75 73 94 VRB3 29.86F MONCKS CORNER MOCLDY 70 68 94 S5 29.93F SUMMERVILLE MOCLDY 72 72 100 S6 29.94F BEAUFORT MCAS CLOUDY 70 67 90 S8 29.94F BEAUFORT ARPT FAIR 72 70 94 S7 29.94F FOG HILTON HEAD IS CLOUDY 72 72 100 SE6 29.96F WALTERBORO CLOUDY 73 73 100 S7 29.94F ALLENDALE FAIR 70 68 94 S5 29.92F ...SOUTHERN MIDLANDS AND PEE DEE... CITY SKY/WX TMP DP RH WIND PRES REMARKS GEORGETOWN DRIZZLE 72 70 94 S3 29.95F KINGSTREE FAIR 70 68 94 SE7 29.91F ORANGEBURG CLOUDY 70 68 93 W3 29.93F BARNWELL CLOUDY 70 70 100 CALM 29.94F AIKEN MOCLDY 64 64 100 CALM 29.97F MANNING CLOUDY 72 70 94 S7 29.92F COLUMBIA LGT RAIN 69 66 90 W9 29.94R SUMTER NOT AVBL FLORENCE LGT RAIN 70 67 90 S6 29.92F MYRTLE BEACH MOCLDY 73 66 78 S8 29.95F N MYRTLE BEACH CLOUDY 73 70 90 S10 29.94F $$ GAZ063-065-086>088-099>101-113>116-118-119-134>141-150-030600- ...SOUTHEAST GEORGIA... CITY SKY/WX TMP DP RH WIND PRES REMARKS SAVANNAH ARPT CLOUDY 74 71 91 S8 29.95F HUNTER AAF NOT AVBL FORT STEWART NOT AVBL STATESBORO CLOUDY 73 73 100 S5 29.93F SYLVANIA CLOUDY 71 71 99 S3 29.93F CLAXTON MOCLDY 70 70 100 CALM 29.94F FOG ...CSRA...CENTRAL AND FAR SOUTHEAST GEORGIA... CITY SKY/WX TMP DP RH WIND PRES REMARKS THOMSON NOT AVBL AUGUSTA-BUSH CLOUDY 69 67 93 CALM 29.92F AUGUSTA-DANIEL HVY RAIN 69 66 90 W8 29.95F VSB 3/4 SWAINSBORO MOCLDY 70 68 94 CALM 29.94F VIDALIA CLOUDY 70 68 94 S3 29.94F EASTMAN CLOUDY N/A N/A N/A N5 29.97S HAZLEHURST FAIR 72 72 100 CALM 29.93F ALMA CLOUDY 71 70 96 CALM 29.94F WAYCROSS CLOUDY 72 71 96 S5 29.95S JESUP FAIR 73 72 94 CALM 29.95S BAXLEY FAIR 72 72 100 CALM 29.94F BRUNSWICK MOCLDY 79 73 83 S6 29.95F SAINT SIMONS PTCLDY 76 73 91 S12G20 29.95F $$ SCZ027-028-034-036>038-045-046-048>050-GAZ119-141-030600- ...LAKE AND SUPPLEMENTAL COASTAL OBSERVATIONS... STATION/POSITION TIME TEMP WIND PRES WAVE SWELL AIR SEA DIR/SP/G HT/PER HT/PER/DIR (UTC) (F) (DEG/KT/KT) (MB) (FT/S) (FT/S/D) WINYAH BAY 0400 74 210/ 6 1015.0 LAKE MURRAY 0500 67 230/ 6/ 10 1013.2S ACE BASIN NERRS 0445 72 CALM 1014.0F FORT PULASKI 0500 75 75 160/ 4/ 6 1014.5F SAPELO ISLAND 0500 76 180/ 14 1014.0F $$ ANZ835-935-AMZ111-154-330-350-352-354-370-450-454-472-030600- ...C-MAN AND BUOY OBSERVATIONS... STATION/POSITION TIME TEMP WIND PRES WAVE SWELL AIR SEA DIR/SP/G HT/PER HT/PER/DIR (UTC) (F) (DEG/KT/KT) (MB) (FT/S) (FT/S/D) BUOY 41004 0450 76 75 200/ 10/ 12 1014.4F 3/ 6 2/ 6 BUOY 41008 NOT AVBL FOLLY BEACH CMAN 0500 74 170/ 12/ 13 1014.0F CAPERS NEARSHORE 0408 74 75 190/ 6/ 10 1014.9F FRIPP NEARSHORE 0408 74 74 240/ 10/ 16 1014.6F STATION/POSITION TIME TEMP WIND PRES WAVE SWELL AIR SEA DIR/SP/G HT/PER HT/PER/DIR (UTC) (F) (DEG/KT/KT) (MB) (FT/S) (FT/S/D) 5E ST. MARYS GA 0421 74 N/A 3/ 5 FRYING PAN BUOY 0500 75 73 180/ 14/ 19 1014.6F BUOY 41025 0450 74 74 220/ 16/ 19 1014.2F 4/10 2/ 80/10 CAPE LOOKOUT NC 0500 71 200/ 10/ 13 1013.9F BUOY 41002 0450 74 74 160/ 16/ 19 1018.3F 4/10 3/ 40/10 BUOY 41010 0420 77 79 160/ 17/ 19 1016.8F ST AUGUSTINE FL 0500 75 74 190/ 10/ 12 1015.7F $$

USA.gov is the U.S. government's official web portal to all federal, state and local government web resources and services.